sat.trackr.live / text

‹ back to catalog

STARLINK-31544

NORAD 59399 · 2024-064B

PAYLOAD ACTIVE UNKNOWN

§ Identity

Operator
Country
US
Launch date
2024-04-05
Launch site
AFETR
Launch vehicle
Mass (kg)
RCS (m²)

Purposes: comms

External: N2YO · Heavens-Above · Gunter

§ Orbital elements

Epoch: 2026-05-24T20:58:34.140000Z

Period
94.27 min
Inclination
43.0038°
Eccentricity
0.0000999
Mean motion
15.27570256 rev/d
Perigee alt
482.4 km
Apogee alt
483.8 km
Semi-major
6,861.2 km
B*
9.3557e-5
RAAN
346.2321°
Arg perigee
274.9499°
Mean anomaly
85.1238°
Rev number
12,087

§ Raw data

STARLINK-315441 59399U 24064B   26144.87400625  .00002313  00000+0  93557-4 0  99912 59399  43.0038 346.2321 0000999 274.9499  85.1238 15.27570256120872

JSON: /api/v1/satellites/59399 · /tle

For live sub-satellite position, see the globe view (requires WebGL).

§ Visibility from observer

Set your observer location to see the next 7 days of passes ≥ 10°. The values pass through the URL so the page stays shareable.

No JS? Fill the form by hand. The geolocation button needs JavaScript.